Orange Lake Weather Center

Moon Phase Calendar



Orange Lake Water Level
Online Cameras

 


      

Current Conditions in Lochloosa
2/29/2024 2:42:51 AM

65°F
Feels Like 66
Clouds
Humidity
100%
Pressure
30.18"
Wind
4.2 mph (NW)
Dew Point
65°F
UV Index
0/10 (Low)
Visibility
6 mi

Hourly Forecast

Date & Time Thu, Feb 29
2:00 AM
Thu, Feb 29
3:00 AM
Thu, Feb 29
4:00 AM
Thu, Feb 29
5:00 AM
Thu, Feb 29
6:00 AM
Thu, Feb 29
7:00 AM
Thu, Feb 29
8:00 AM
Thu, Feb 29
9:00 AM
Thu, Feb 29
10:00 AM
Thu, Feb 29
11:00 AM
Thu, Feb 29
12:00 PM
Thu, Feb 29
1:00 PM
Thu, Feb 29
2:00 PM
Thu, Feb 29
3:00 PM
Thu, Feb 29
4:00 PM
Thu, Feb 29
5:00 PM
Thu, Feb 29
6:00 PM
Thu, Feb 29
7:00 PM
Thu, Feb 29
8:00 PM
Thu, Feb 29
9:00 PM
Thu, Feb 29
10:00 PM
Thu, Feb 29
11:00 PM
Fri, Mar 1
12:00 AM
Fri, Mar 1
1:00 AM
Fri, Mar 1
2:00 AM
Fri, Mar 1
3:00 AM
Fri, Mar 1
4:00 AM
Fri, Mar 1
5:00 AM
Fri, Mar 1
6:00 AM
Fri, Mar 1
7:00 AM
Fri, Mar 1
8:00 AM
Fri, Mar 1
9:00 AM
Fri, Mar 1
10:00 AM
Fri, Mar 1
11:00 AM
Fri, Mar 1
12:00 PM
Fri, Mar 1
1:00 PM
Fri, Mar 1
2:00 PM
Fri, Mar 1
3:00 PM
Fri, Mar 1
4:00 PM
Fri, Mar 1
5:00 PM
Fri, Mar 1
6:00 PM
Fri, Mar 1
7:00 PM
Fri, Mar 1
8:00 PM
Fri, Mar 1
9:00 PM
Fri, Mar 1
10:00 PM
Fri, Mar 1
11:00 PM
Sat, Mar 2
12:00 AM
Sat, Mar 2
1:00 AM
Condition
Clouds

Clouds

Clouds

Clouds

Clouds

Clouds

Clouds

Clouds

Clouds

Clouds

Clouds

Clouds

Clouds

Clouds

Clouds

Clouds

Clouds

Clouds

Clouds

Clouds

Clouds

Clouds

Clouds

Clouds

Clouds

Clouds

Rain

Rain

Clouds

Clouds

Clouds

Clouds

Clouds

Clouds

Clouds

Rain

Rain

Rain

Rain

Rain

Rain

Rain

Rain

Rain

Rain

Rain

Rain

Rain
Temperature 65°F65°F65°F65°F64°F62°F62°F63°F65°F67°F70°F70°F64°F62°F62°F62°F62°F61°F60°F61°F61°F61°F62°F61°F61°F62°F62°F62°F62°F62°F64°F68°F71°F74°F76°F77°F77°F75°F73°F71°F69°F67°F67°F66°F66°F65°F64°F64°F
Feels Like 66°F66°F66°F66°F64°F61°F61°F61°F64°F66°F69°F69°F63°F61°F62°F61°F61°F60°F60°F60°F61°F61°F61°F61°F61°F62°F63°F63°F62°F62°F64°F68°F72°F74°F76°F77°F77°F76°F74°F72°F70°F68°F67°F67°F66°F66°F65°F65°F
Cloudiness 99%99%99%99%99%100%100%100%100%100%100%100%100%100%100%100%100%100%100%100%100%100%100%100%100%100%100%100%100%100%100%100%100%100%100%100%100%100%100%100%100%100%100%100%100%100%100%100%
Visibility 6 mi6 mi6 mi6 mi6 mi6 mi6 mi6 mi6 mi6 mi6 mi6 mi6 mi6 mi6 mi6 mi6 mi6 mi6 mi6 mi6 mi6 mi6 mi6 mi6 mi6 mi6 mi6 mi6 mi6 mi6 mi6 mi6 mi6 mi6 mi6 mi6 mi6 mi6 mi6 mi6 mi6 mi6 mi6 mi6 mi6 mi6 mi6 mi
Precipitation 0%0%0%0%0%0%0%0%0%0%0%0%0%0%0%0%0%1%1%0%0%0%0%0%1%9%21%32%32%12%0%0%0%0%15%29%84%97%100%100%100%97%61%60%73%81%92%99%
Humidity 99%100%98%97%92%85%69%56%57%56%60%63%69%66%67%66%68%71%76%77%77%78%82%88%92%94%96%98%99%99%96%87%76%67%64%62%62%70%76%79%84%90%91%91%93%94%96%97%
Dew Point 64°F65°F64°F64°F62°F57°F51°F47°F49°F51°F55°F56°F53°F51°F51°F51°F51°F51°F53°F53°F54°F55°F56°F57°F59°F60°F61°F61°F61°F61°F62°F64°F63°F62°F63°F63°F63°F65°F65°F64°F64°F64°F64°F64°F63°F63°F63°F63°F
Pressure 30.18"30.18"30.18"30.18"30.18"30.21"30.27"30.3"30.3"30.3"30.3"30.27"30.27"30.27"30.27"30.27"30.3"30.3"30.3"30.3"30.3"30.3"30.27"30.24"30.24"30.21"30.21"30.21"30.21"30.21"30.21"30.21"30.21"30.21"30.18"30.18"30.15"30.12"30.12"30.15"30.15"30.18"30.18"30.18"30.18"30.18"30.18"30.18"
Wind Speed 3.3 mph4.2 mph3.8 mph5.5 mph7.7 mph8.4 mph8.9 mph9.7 mph11.8 mph11.2 mph10.7 mph12.3 mph11.6 mph10.1 mph10.2 mph10.3 mph10.4 mph10.2 mph9.8 mph10 mph10.1 mph9.8 mph8.8 mph7.9 mph7 mph6.4 mph5.8 mph5 mph5.3 mph4.4 mph4.6 mph5.7 mph6.1 mph5.9 mph5.7 mph6.2 mph6.4 mph4.9 mph4.1 mph4.6 mph4.4 mph4 mph3.1 mph2.7 mph2.6 mph3 mph2.9 mph3.4 mph
Wind
Direction
230°
SW
316°
NW
354°
N

N
15°
NNE
20°
NNE
31°
NNE
45°
NE
50°
NE
62°
ENE
68°
ENE
62°
ENE
50°
NE
48°
NE
45°
NE
43°
NE
47°
NE
52°
NE
48°
NE
53°
NE
49°
NE
45°
NE
53°
NE
61°
ENE
58°
ENE
54°
NE
52°
NE
45°
NE
66°
ENE
83°
E
114°
ESE
130°
SE
138°
SE
152°
SSE
144°
SE
169°
S
180°
S
204°
SSW
215°
SW
243°
WSW
266°
W
264°
W
286°
WNW
251°
WSW
223°
SW
247°
WSW
298°
WNW
322°
NW

Daily Forecast

Date High Low Precip. Humidity
Today
Feb 29

Clouds
70 °F
60 °F
1%
60%
Friday
Mar 1

Rain
77 °F
61 °F
100%
64%
Saturday
Mar 2

Rain
76 °F
62 °F
99%
60%
Sunday
Mar 3

Rain
74 °F
62 °F
96%
65%
Monday
Mar 4

Clouds
80 °F
61 °F
9%
48%
Tuesday
Mar 5

Clouds
83 °F
61 °F
0%
50%
Wednesday
Mar 6

Rain
81 °F
66 °F
100%
54%
Thursday
Mar 7

Clouds
83 °F
60 °F
9%
45%
Friday
Mar 8

Clouds
86 °F
65 °F
1%
48%
Saturday
Mar 9

Clouds
85 °F
66 °F
0%
45%
Sunday
Mar 10

Rain
77 °F
63 °F
24%
64%
Monday
Mar 11

Clouds
76 °F
54 °F
0%
28%
Tuesday
Mar 12

Clouds
76 °F
59 °F
25%
55%
Wednesday
Mar 13

Rain
66 °F
64 °F
100%
93%
Thursday
Mar 14

Rain
65 °F
63 °F
100%
96%
Friday
Mar 15

Rain
73 °F
65 °F
35%
72%

Temperature 8-14 Day Outlook



Precipitation 8-14 Day Outlook




Quick Links
Orange Lake News
Orange Lake Photos
Orange Lake Videos




About Us
Contact Us
Site Map
Search Site
Advertise With Us
   
Orange.USLakes.info
THE ORANGE LAKE WEBSITE

Copyright 2024, Lakes Online
Privacy    |    Legal